Location: Unspecified
(0.0000°N, 0.0000°E)
Time: 21:32:57
(UTC+00:00)

Explorer 11/Cluster Stage 4 - Visible Passes

Search period start: 28 March 2017 00:00
Search period end: 07 April 2017 00:00
Orbit: 467 x 1263 km, 28.8° (Epoch: 27 March)

Date Brightness Start Highest point End Pass type
(mag) Time Alt. Az. Time Alt. Az. Time Alt. Az.
01 Apr 7.8 18:51:52 10° N 18:53:21 12° NNE 18:54:43 10° NE visible
02 Apr 7.6 18:40:59 10° NNW 18:43:32 16° NNE 18:45:43 11° ENE visible
03 Apr 9.2 05:36:53 10° SSW 05:42:14 22° SSE 05:48:04 10° ESE visible
03 Apr 7.3 18:30:25 10° NNW 18:33:42 22° NNE 18:36:41 10° ENE visible
03 Apr 8.7 20:18:25 10° WNW 20:18:57 13° W 20:18:57 13° W visible
04 Apr 9.1 05:26:33 10° SSW 05:32:08 25° SSE 05:38:21 10° E visible
04 Apr 8.3 20:08:40 10° W 20:10:00 18° W 20:10:00 18° W visible
05 Apr 8.8 05:16:18 10° SSW 05:22:01 28° SSE 05:28:32 10° E visible
05 Apr 8.0 19:59:00 10° W 20:01:03 21° WSW 20:01:03 21° WSW visible
06 Apr 8.5 05:06:06 10° SSW 05:11:53 33° SSE 05:18:38 10° E visible
06 Apr 7.9 19:49:25 10° WSW 19:52:05 19° SW 19:52:05 19° SW visible
